This demonstration page uses our WeatherBlox Daily Observations layout. Learn more.

Hourly Observations for August 2, 2016

Temp ( °F °C ) Dew Point ( °F °C ) Humidity (%) Winds ( mph kmh ) Pressure ( in mb ) Visibility ( mi km ) Precip ( " mm )
12:15 am 00:15 Clear 77 25.1 74 23.1 89 89 E 7 11 29.8 1009 10 16.09344 0 0
12:35 am 00:35 Clear 76 24.7 73 22.7 89 89 E 7 11 29.8 1009 10 16.09344 0 0
12:55 am 00:55 Clear 76 24.5 72 22 86 86 E 6 9 29.8 1009 10 16.09344 0 0
1:15 am 01:15 Clear 76 24.2 72 22 88 88 ENE 6 9 29.8 1009 10 16.09344 0 0
1:35 am 01:35 Clear 76 24.7 72 22.2 86 86 E 6 9 29.8 1009 10 16.09344 0 0
1:55 am 01:55 Clear 76 24.5 73 22.5 89 89 NE 13 20 29.83 1010 10 16.09344 0 0
2:15 am 02:15 Partly Cloudy 76 24.4 73 23 92 92 ENE 16 26 29.83 1010 10 16.09344 0 0
2:35 am 02:35 Partly Cloudy 75 24 73 22.6 92 92 ENE 16 26 29.83 1010 10 16.09344 0 0
2:55 am 02:55 Clear 74 23.3 71 21.7 91 91 E 10 17 29.83 1010 10 16.09344 0 0
3:15 am 03:15 Clear 73 22.7 70 21 90 90 E 12 19 29.83 1010 10 16.09344 0 0
3:35 am 03:35 Clear 72 22.2 68 20 87 87 ENE 12 19 29.85 1011 10 16.09344 0 0
3:55 am 03:55 Clear 71 21.6 67 19.5 88 88 ENE 8 13 29.85 1011 10 16.09344 0 0
4:15 am 04:15 Clear 70 21.2 67 19.2 88 88 ENE 10 17 29.85 1011 10 16.09344 0 0
4:35 am 04:35 Clear 70 21.1 66 18.8 87 87 ENE 14 22 29.88 1012 10 16.09344 0 0
4:55 am 04:55 Clear 70 20.9 64 17.9 83 83 ENE 18 30 29.88 1012 10 16.09344 0 0
5:15 am 05:15 Clear 69 20.5 63 17.3 82 82 ENE 16 26 29.88 1012 10 16.09344 0 0
5:35 am 05:35 Clear 69 20.5 63 17.2 81 81 ENE 16 26 29.88 1012 10 16.09344 0 0
5:55 am 05:55 Clear 69 20.5 64 17.6 84 84 ENE 16 26 29.91 1013 10 16.09344 0 0
6:15 am 06:15 Clear 70 21.2 64 17.7 81 81 E 18 30 29.91 1013 10 16.09344 0 0
6:35 am 06:35 Clear 71 21.5 64 17.7 79 79 E 16 26 29.91 1013 10 16.09344 0 0
6:55 am 06:55 Sunny 71 21.6 63 17.2 76 76 E 15 24 29.91 1013 10 16.09344 0 0
7:15 am 07:15 Sunny 71 21.7 65 18.6 83 83 E 16 26 29.91 1013 10 16.09344 0 0
7:35 am 07:35 Sunny 72 22 66 19 83 83 ESE 16 26 29.91 1013 10 16.09344 0 0
7:55 am 07:55 Sunny 72 22 66 19 83 83 ESE 14 22 29.94 1014 10 16.09344 0 0
8:15 am 08:15 Sunny 72 22.4 67 19.5 84 84 ESE 13 20 29.94 1014 10 16.09344 0 0
8:35 am 08:35 Sunny 73 22.8 67 19.3 81 81 ESE 12 19 29.94 1014 10 16.09344 0 0
8:55 am 08:55 Sunny 73 23 65 18.6 76 76 ESE 17 28 29.97 1015 10 16.09344 0 0
9:15 am 09:15 Sunny 74 23.4 65 18.1 72 72 E 10 17 30 1016 10 16.09344 0 0
9:35 am 09:35 Sunny 75 23.7 64 18 71 71 ESE 15 24 30 1016 10 16.09344 0 0
9:55 am 09:55 Sunny 76 24.3 65 18.3 69 69 ESE 9 15 29.97 1015 10 16.09344 0 0
10:15 am 10:15 Sunny 77 25.1 65 18.6 67 67 ESE 13 20 29.94 1014 10 16.09344 0 0
10:35 am 10:35 Sunny 78 25.7 66 19 67 67 ESE 9 15 29.97 1015 10 16.09344 0 0
10:55 am 10:55 Sunny 79 25.9 66 19.1 66 66 SE 8 13 29.97 1015 10 16.09344 0 0
11:15 am 11:15 Sunny 80 26.5 67 19.3 65 65 E 6 9 29.97 1015 10 16.09344 0 0
11:35 am 11:35 Sunny 80 26.6 66 19 63 63 ESE 5 7 29.97 1015 10 16.09344 0 0
11:55 am 11:55 Sunny 80 26.8 67 19.4 64 64 ENE 3 6 29.97 1015 10 16.09344 0 0
12:15 pm 12:15 Sunny 81 27.1 67 19.5 63 63 ENE 3 6 29.97 1015 10 16.09344 0 0
12:35 pm 12:35 Sunny 82 27.5 66 18.7 59 59 Calm 29.97 1015 10 16.09344 0 0
12:55 pm 12:55 Sunny 83 28.1 65 18.6 56 56 Calm 29.94 1014 10 16.09344 0 0
1:15 pm 13:15 Sunny 83 28.4 66 19.1 57 57 ENE 3 6 29.94 1014 10 16.09344 0 0
1:35 pm 13:35 Sunny 84 29 66 19 55 55 ENE 7 11 29.94 1014 10 16.09344 0 0
1:55 pm 13:55 Sunny 84 29.1 66 18.8 54 54 ENE 7 11 29.94 1014 10 16.09344 0 0
2:15 pm 14:15 Sunny 85 29.5 66 19 53 53 E 8 13 29.94 1014 10 16.09344 0 0
2:35 pm 14:35 Sunny 85 29.5 67 19.7 56 56 NE 5 7 29.91 1013 10 16.09344 0 0
2:55 pm 14:55 Sunny 86 30.1 68 19.8 54 54 ENE 8 13 29.91 1013 10 16.09344 0 0
3:15 pm 15:15 Sunny 87 30.3 67 19.5 52 52 E 8 13 29.91 1013 10 16.09344 0 0
3:35 pm 15:35 Sunny 87 30.6 68 20 53 53 E 8 13 29.91 1013 10 16.09344 0 0
3:55 pm 15:55 Sunny 87 30.5 67 19.7 52 52 E 8 13 29.91 1013 10 16.09344 0 0
4:15 pm 16:15 Partly Cloudy 87 30.3 68 19.9 54 54 E 9 15 29.91 1013 10 16.09344 0 0
4:35 pm 16:35 Partly Cloudy 87 30.5 68 20.2 54 54 E 8 13 29.91 1013 10 16.09344 0 0
4:55 pm 16:55 Mostly Cloudy 85 29.5 69 20.3 58 58 E 8 13 29.91 1013 10 16.09344 0 0
5:15 pm 17:15 Mostly Cloudy 87 30.4 68 20 54 54 E 12 19 29.91 1013 10 16.09344 0 0
5:35 pm 17:35 Partly Cloudy 87 30.6 67 19.7 52 52 E 12 19 29.88 1012 10 16.09344 0 0
5:55 pm 17:55 Sunny 87 30.6 68 19.8 52 52 E 9 15 29.88 1012 10 16.09344 0 0
6:15 pm 18:15 Sunny 87 30.4 67 19.5 52 52 E 9 15 29.88 1012 10 16.09344 0 0
6:35 pm 18:35 Sunny 86 30.2 67 19.7 53 53 E 9 15 29.88 1012 10 16.09344 0 0
6:55 pm 18:55 Sunny 86 30.1 68 20.1 55 55 E 9 15 29.88 1012 10 16.09344 0 0
7:15 pm 19:15 Sunny 85 29.5 70 21.2 61 61 E 8 13 29.88 1012 10 16.09344 0 0
7:35 pm 19:35 Sunny 84 28.9 70 21.3 64 64 ENE 8 13 29.88 1012 10 16.09344 0 0
7:55 pm 19:55 Sunny 82 28 72 22.1 70 70 E 8 13 29.88 1012 10 16.09344 0 0
8:15 pm 20:15 Sunny 82 27.5 70 21.1 68 68 ESE 9 15 29.91 1013 10 16.09344 0 0
8:35 pm 20:35 Mostly Cloudy 80 26.6 70 21.2 72 72 ESE 6 9 29.94 1014 10 16.09344 0 0
8:55 pm 20:55 Cloudy 80 26.6 70 21 71 71 ESE 6 9 29.97 1015 10 16.09344 0 0
9:15 pm 21:15 Cloudy 79 26.1 70 21 74 74 ESE 6 9 29.97 1015 10 16.09344 0 0
9:35 pm 21:35 Cloudy 78 25.6 70 21.1 76 76 ESE 5 7 29.97 1015 10 16.09344 0 0
9:55 pm 21:55 Mostly Cloudy 78 25.6 69 20.6 74 74 SE 6 9 29.97 1015 10 16.09344 0 0
10:15 pm 22:15 Partly Cloudy 75 23.8 69 20.6 82 82 ESE 6 9 30 1016 10 16.09344 0 0
10:35 pm 22:35 Clear 75 23.8 69 20.6 82 82 SE 7 11 30 1016 10 16.09344 0 0
10:55 pm 22:55 Clear 74 23.5 69 20.5 83 83 SE 7 11 30 1016 10 16.09344 0 0
11:15 pm 23:15 Clear 73 23 69 20.6 86 86 SE 7 11 30 1016 10 16.09344 0 0
11:35 pm 23:35 Clear 73 22.7 69 20.6 88 88 SE 6 9 30 1016 10 16.09344 0 0
11:55 pm 23:55 Clear 73 22.5 69 20.5 89 89 SSE 6 9 30 1016 10 16.09344 0 0

Powered by AerisWeather